When you browse on this site, cookies collect data to enhance your experience and personalize the content and advertising you see.
Visit our Privacy Policy to learn more. By continuing to use the site, you agree to this use of cookies and data.
  • In Hungary
  • List of Countries
  • For 7 days
  • Water Temperature
  • Weather Map
  • News
  • Weather Widgets
  • user-avatar
    Login

    Hourly Weather Kovrino

    Today, 22 October, Tuesday

    Time Temperature Precipitation Wind Pressure Humidity
    00:00 +12°C° 0 mm 2 mps 757 mmHg 67%
    01:00 +12°C° 0 mm 2 mps 757 mmHg 69%
    02:00 +10°C° 0 mm 2 mps 757 mmHg 71%
    03:00 +10°C° 0 mm 2 mps 757 mmHg 76%
    04:00 +10°C° 0 mm 2 mps 758 mmHg 78%
    05:00 +9°C° 0 mm 2 mps 758 mmHg 81%
    06:00 +9°C° 0 mm 2 mps 758 mmHg 83%
    07:00 +10°C° 0 mm 2 mps 758 mmHg 77%
    08:00 +13°C° 0 mm 2 mps 758 mmHg 72%
    09:00 +13°C° 0 mm 3 mps 758 mmHg 66%
    10:00 +14°C° 0 mm 3 mps 758 mmHg 59%
    11:00 +17°C° 0 mm 2 mps 758 mmHg 52%
    12:00 +18°C° 0 mm 2 mps 758 mmHg 45%
    13:00 +19°C° 0 mm 2 mps 757 mmHg 43%
    14:00 +19°C° 0 mm 2 mps 757 mmHg 41%
    15:00 +19°C° 0 mm 2 mps 757 mmHg 39%
    16:00 +19°C° 0 mm 1 mps 757 mmHg 43%
    17:00 +16°C° 0 mm 1 mps 757 mmHg 48%
    18:00 +15°C° 0 mm 1 mps 757 mmHg 53%
    19:00 +15°C° 0 mm 1 mps 757 mmHg 55%
    20:00 +14°C° 0 mm 1 mps 757 mmHg 56%
    21:00 +14°C° 0 mm 1 mps 757 mmHg 58%
    22:00 +13°C° 0 mm 1 mps 756 mmHg 59%
    23:00 +13°C° 0 mm 1 mps 756 mmHg 60%

    Tomorrow, 23 October, Wednesday

    Time Temperature Precipitation Wind Pressure Humidity
    00:00 +13°C° 0 mm 1 mps 756 mmHg 61%
    01:00 +13°C° 0 mm 1 mps 756 mmHg 62%
    02:00 +13°C° 0 mm 1 mps 756 mmHg 63%
    03:00 +12°C° 0 mm 1 mps 756 mmHg 64%
    04:00 +12°C° 0 mm 1 mps 756 mmHg 65%
    05:00 +11°C° 0 mm 0 mps 756 mmHg 66%
    06:00 +11°C° 0 mm 0 mps 756 mmHg 67%
    07:00 +13°C° 0 mm 1 mps 756 mmHg 63%
    08:00 +14°C° 0 mm 1 mps 756 mmHg 59%
    09:00 +15°C° 0 mm 1 mps 757 mmHg 55%
    10:00 +18°C° 0 mm 1 mps 756 mmHg 51%
    11:00 +19°C° 0 mm 1 mps 756 mmHg 47%
    12:00 +20°C° 0 mm 1 mps 756 mmHg 42%
    13:00 +21°C° 0 mm 1 mps 756 mmHg 41%
    14:00 +21°C° 0 mm 1 mps 756 mmHg 40%
    15:00 +19°C° 0 mm 0 mps 756 mmHg 39%
    16:00 +20°C° 0 mm 1 mps 756 mmHg 43%
    17:00 +18°C° 0 mm 1 mps 756 mmHg 48%
    18:00 +16°C° 0 mm 1 mps 755 mmHg 52%
    19:00 +15°C° 0 mm 1 mps 756 mmHg 53%
    20:00 +15°C° 0 mm 2 mps 756 mmHg 54%
    21:00 +14°C° 0 mm 2 mps 756 mmHg 55%
    22:00 +14°C° 0 mm 2 mps 756 mmHg 55%
    23:00 +14°C° 0 mm 2 mps 755 mmHg 55%

    Day after tomorrow, 24 October, Thursday

    Time Temperature Precipitation Wind Pressure Humidity
    00:00 +13°C° 0 mm 2 mps 755 mmHg 54%
    01:00 +13°C° 0 mm 2 mps 755 mmHg 54%
    02:00 +13°C° 0 mm 2 mps 755 mmHg 54%
    03:00 +13°C° 0 mm 1 mps 755 mmHg 54%
    04:00 +12°C° 0 mm 1 mps 755 mmHg 55%
    05:00 +12°C° 0 mm 1 mps 755 mmHg 56%
    06:00 +12°C° 0 mm 1 mps 755 mmHg 57%
    07:00 +13°C° 0 mm 2 mps 755 mmHg 55%
    08:00 +14°C° 0 mm 2 mps 755 mmHg 53%
    09:00 +14°C° 0 mm 3 mps 755 mmHg 51%
    10:00 +16°C° 0 mm 3 mps 755 mmHg 46%
    11:00 +18°C° 0 mm 3 mps 755 mmHg 40%
    12:00 +20°C° 0 mm 3 mps 755 mmHg 34%
    13:00 +20°C° 0 mm 3 mps 755 mmHg 33%
    14:00 +20°C° 0 mm 3 mps 755 mmHg 33%
    15:00 +20°C° 0 mm 3 mps 754 mmHg 32%
    16:00 +19°C° 0 mm 3 mps 754 mmHg 37%
    17:00 +17°C° 0 mm 3 mps 754 mmHg 42%
    18:00 +16°C° 0 mm 3 mps 754 mmHg 47%
    19:00 +14°C° 0 mm 3 mps 754 mmHg 49%
    20:00 +13°C° 0 mm 3 mps 754 mmHg 52%
    21:00 +12°C° 0 mm 3 mps 754 mmHg 54%
    22:00 +12°C° 0 mm 3 mps 754 mmHg 55%
    23:00 +12°C° 0 mm 3 mps 754 mmHg 56%

    25 October, Friday

    Time Temperature Precipitation Wind Pressure Humidity
    00:00 +11°C° 0 mm 3 mps 753 mmHg 58%
    01:00 +11°C° 0 mm 3 mps 753 mmHg 59%
    02:00 +12°C° 0 mm 2 mps 753 mmHg 60%
    03:00 +10°C° 0 mm 2 mps 753 mmHg 61%
    04:00 +10°C° 0 mm 2 mps 753 mmHg 61%
    05:00 +10°C° 0 mm 2 mps 753 mmHg 62%
    06:00 +10°C° 0 mm 3 mps 753 mmHg 62%
    07:00 +11°C° 0 mm 3 mps 753 mmHg 60%
    08:00 +12°C° 0 mm 3 mps 753 mmHg 59%
    09:00 +13°C° 0 mm 4 mps 754 mmHg 57%
    10:00 +15°C° 0 mm 4 mps 754 mmHg 53%
    11:00 +17°C° 0 mm 4 mps 754 mmHg 50%
    12:00 +18°C° 0 mm 4 mps 754 mmHg 47%
    13:00 +17°C° 0 mm 5 mps 753 mmHg 45%
    14:00 +19°C° 0 mm 5 mps 753 mmHg 43%
    15:00 +19°C° 0 mm 5 mps 753 mmHg 41%
    16:00 +17°C° 0 mm 4 mps 753 mmHg 45%
    17:00 +14°C° 0 mm 4 mps 753 mmHg 49%
    18:00 +13°C° 0 mm 3 mps 753 mmHg 54%
    19:00 +12°C° 0 mm 3 mps 754 mmHg 54%
    20:00 +12°C° 0 mm 4 mps 754 mmHg 54%
    21:00 +11°C° 0 mm 4 mps 754 mmHg 55%
    22:00 +11°C° 0 mm 4 mps 754 mmHg 55%
    23:00 +11°C° 0 mm 4 mps 754 mmHg 55%

    26 October, Saturday

    Time Temperature Precipitation Wind Pressure Humidity
    00:00 +10°C° 0 mm 4 mps 754 mmHg 55%
    01:00 +10°C° 0 mm 3 mps 754 mmHg 56%
    02:00 +10°C° 0 mm 3 mps 754 mmHg 56%
    03:00 +10°C° 0 mm 3 mps 754 mmHg 56%
    04:00 +10°C° 0 mm 3 mps 754 mmHg 59%
    05:00 +9°C° 0 mm 3 mps 754 mmHg 62%
    06:00 +9°C° 0 mm 3 mps 754 mmHg 65%
    07:00 +10°C° 0 mm 4 mps 754 mmHg 62%
    08:00 +11°C° 0 mm 4 mps 754 mmHg 60%
    09:00 +13°C° 0 mm 4 mps 754 mmHg 58%
    10:00 +14°C° 0 mm 4 mps 754 mmHg 56%
    11:00 +17°C° 0 mm 4 mps 754 mmHg 54%
    12:00 +17°C° 0 mm 5 mps 754 mmHg 52%
    13:00 +17°C° 0 mm 5 mps 754 mmHg 54%
    14:00 +19°C° 0 mm 5 mps 754 mmHg 56%
    15:00 +19°C° 0 mm 4 mps 753 mmHg 58%
    16:00 +18°C° 0 mm 4 mps 753 mmHg 62%
    17:00 +17°C° 0 mm 3 mps 753 mmHg 66%
    18:00 +16°C° 0 mm 2 mps 753 mmHg 70%
    19:00 +16°C° 0 mm 3 mps 753 mmHg 70%
    20:00 +14°C° 0 mm 3 mps 753 mmHg 70%
    21:00 +14°C° 0 mm 3 mps 753 mmHg 70%
    22:00 +13°C° 0 mm 3 mps 753 mmHg 71%
    23:00 +13°C° 0 mm 3 mps 753 mmHg 73%

    27 October, Sunday

    Time Temperature Precipitation Wind Pressure Humidity
    00:00 +12°C° 0 mm 3 mps 753 mmHg 74%
    01:00 +12°C° 0 mm 3 mps 753 mmHg 74%
    02:00 +12°C° 0 mm 3 mps 753 mmHg 74%
    03:00 +12°C° 0 mm 3 mps 752 mmHg 74%
    04:00 +12°C° 0 mm 3 mps 752 mmHg 75%
    05:00 +11°C° 0 mm 3 mps 753 mmHg 76%
    06:00 +11°C° 0 mm 3 mps 753 mmHg 77%
    07:00 +12°C° 0 mm 4 mps 753 mmHg 74%
    08:00 +12°C° 0 mm 4 mps 753 mmHg 70%
    09:00 +13°C° 0 mm 4 mps 753 mmHg 67%
    10:00 +15°C° 0 mm 4 mps 753 mmHg 61%
    11:00 +17°C° 0 mm 4 mps 753 mmHg 55%
    12:00 +19°C° 0 mm 4 mps 752 mmHg 50%
    13:00 +19°C° 0 mm 4 mps 752 mmHg 47%
    14:00 +19°C° 0 mm 3 mps 752 mmHg 45%
    15:00 +20°C° 0 mm 3 mps 751 mmHg 43%
    16:00 +18°C° 0 mm 3 mps 751 mmHg 46%
    17:00 +17°C° 0 mm 3 mps 751 mmHg 49%
    18:00 +14°C° 0 mm 3 mps 751 mmHg 52%
    19:00 +14°C° 0 mm 3 mps 751 mmHg 52%
    20:00 +13°C° 0 mm 3 mps 751 mmHg 51%
    21:00 +13°C° 0 mm 3 mps 751 mmHg 51%
    22:00 +13°C° 0 mm 3 mps 751 mmHg 52%
    23:00 +12°C° 0 mm 3 mps 751 mmHg 54%

    28 October, Monday

    Time Temperature Precipitation Wind Pressure Humidity
    00:00 +12°C° 0 mm 3 mps 751 mmHg 55%
    01:00 +12°C° 0 mm 2 mps 750 mmHg 56%
    02:00 +12°C° 0 mm 2 mps 750 mmHg 58%
    03:00 +12°C° 0 mm 2 mps 750 mmHg 60%
    04:00 +12°C° 0 mm 2 mps 750 mmHg 63%
    05:00 +10°C° 0 mm 2 mps 750 mmHg 66%
    06:00 +10°C° 0 mm 2 mps 750 mmHg 70%
    07:00 +12°C° 0 mm 2 mps 750 mmHg 67%
    08:00 +13°C° 0 mm 2 mps 750 mmHg 64%
    09:00 +14°C° 0 mm 3 mps 750 mmHg 61%
    10:00 +16°C° 0 mm 3 mps 750 mmHg 55%
    11:00 +18°C° 0 mm 4 mps 750 mmHg 49%
    12:00 +20°C° 0 mm 4 mps 750 mmHg 42%
    13:00 +20°C° 0 mm 4 mps 750 mmHg 41%
    14:00 +20°C° 0 mm 4 mps 750 mmHg 41%
    15:00 +20°C° 0 mm 4 mps 749 mmHg 40%
    16:00 +19°C° 0 mm 4 mps 749 mmHg 44%
    17:00 +17°C° 0 mm 3 mps 749 mmHg 48%
    18:00 +14°C° 0 mm 3 mps 749 mmHg 52%
    19:00 +14°C° 0 mm 3 mps 749 mmHg 55%
    20:00 +13°C° 0 mm 3 mps 750 mmHg 58%
    21:00 +13°C° 0 mm 3 mps 750 mmHg 61%
    22:00 +12°C° 0 mm 3 mps 750 mmHg 65%
    23:00 +12°C° 0 mm 3 mps 750 mmHg 69%
    Show more